Find Starlink 31229

NORAD ID: 58986 Int'l Des: 2024-031 Owner: SPXS Country: US Constellation: starlink operational
LEOCIRCULAR

リアルタイム位置

3D地球を読み込み中...

Starlink 31229について

説明を読み込み中...

次回通過

Passes for default location (London). Set your location on the main map for personalized predictions.

高度履歴

Loading altitude history...

軌道要素

1 58986U 24031X 26125.15714448 .00003527 00000-0 13122-3 0 9995
2 58986 53.1618 34.7534 0001043 79.1118 281.0000 15.30184924125155
Epoch: May 5, 2026 • Age: 12 hours

現在のステータス

高度 484.8 km
速度 7.62 km/s
衛星直下点 -29.59°S, 138.56°E
打ち上げ日 Feb 15, 2024
運用期間 2.2 years
タイプ internet

技術仕様

分類 Payload
質量 730.00 kg
乾燥質量 700.00 kg
総質量 730.00 kg
長さ 0.30 m
直径 4.10 m
スパン 29.00 m
形状 Box + pan
製造者 SPXS
バスタイプ Starlink V2M
フェーズステータス In Orbit
所有者/国 SPXS/US

Most Searched